Weather in Iskateley

Russia / Nenets Autonomous Okrug     67°40′39″N   53°07′38″E
temp.,
°C
wind,
m/s
gust,
m/s
humid.,
%
clouds,
%
prec.,
mm/h
press.,
hPa
HPBL,
m
19 january, wed
wed1900:00−22nne21100100 0.0 9989
03:00−23w0110081 0.0 9989
06:00−18ssw3397100 0.0 99752
09:00−15ssw369798 0.1 99699
12:00−14ssw4996100 0.0 996137
15:00−12s6139398 0.0 995242
18:00−10s81693100 0.1 992433
21:00−8ssw101694100 0.6 990599
20 january, thu
thu2000:00−7ssw91592100 0.6 989600
03:00−7ssw81493100 1.1 989540
06:00−7ssw81491100 0.1 989501
09:00−7s91593100 0.3 989504
12:00−7ssw91594100 0.9 989549
15:00−7ssw91592100 1.5 989505
18:00−8ssw9169288 0.1 990470
21:00−7ssw81592100 0.3 991439
21 january, fri
fri2100:00−6ssw91593100 0.3 992452
03:00−5ssw8159381 0.4 994422
06:00−5ssw71395100 0.2 997338
09:00−4ssw61194100 0.3 999309
12:00−4ssw61195100 0.1 1001330
15:00−3ssw61294100 0.3 1004393
18:00−4ssw71294100 0.2 1005395
21:00−5ssw71295100 0.6 1008423
22 january, sat
sat2200:00−5sw71295100 0.6 1011401
03:00−6sw61294100 0.8 1012344
06:00−7sw6109599 0.4 1014296
09:00−8sw5995100 0.7 1016232
12:00−8sw5995100 0.2 1018216
15:00−8sw4696100 0.4 1020127
18:00−10wsw349791 0.1 102254
21:00−17wsw3310096 0.1 102321
23 january, sun
sun2300:00−18sw3310099 0.0 102434
03:00−15sw359879 0.1 102567
06:00−13ssw489783 0.1 1025144
09:00−15sw5119654 0.1 1025160
12:00−15ssw61294100 0.0 1025203
15:00−14ssw71489100 0.0 1025279
18:00−13ssw8168793 0.0 1024331
21:00−12ssw8178790 0.0 1023373